This is the latest recevied weather packets stored in our database for station/object DL3TR-13. If no packets are shown the sender has not sent any weather packets the latest 10 day(s).
| Time | Temp. | Humidity | Pressure | Rain* | Wind** | Luminosity | Snow |
|---|---|---|---|---|---|---|---|
| 1777288392 | 20° C | 40% | 1018.5 hPa | 0 mm | - | 817 W/m² | - |
| 1777287792 | 20° C | 38% | 1018.5 hPa | 0 mm | - | 803 W/m² | - |
| 1777287192 | 19.44° C | 40% | 1018.6 hPa | 0 mm | - | 807 W/m² | - |
| 1777286592 | 19.44° C | 39% | 1018.7 hPa | 0 mm | - | 819 W/m² | - |
| 1777285992 | 18.89° C | 42% | 1018.8 hPa | 0 mm | - | 789 W/m² | - |
| 1777285392 | 18.89° C | 41% | 1019 hPa | 0 mm | - | 800 W/m² | - |
| 1777284792 | 17.78° C | 42% | 1019.1 hPa | 0 mm | - | 812 W/m² | - |
| 1777284192 | 17.78° C | 42% | 1019.2 hPa | 0 mm | - | 330 W/m² | - |
| 1777283592 | 17.78° C | 44% | 1019.3 hPa | 0 mm | - | 638 W/m² | - |
| 1777282992 | 17.78° C | 43% | 1019.4 hPa | 0 mm | - | 793 W/m² | - |
| 1777282392 | 17.78° C | 45% | 1019.6 hPa | 0 mm | - | 793 W/m² | - |
| 1777281791 | 17.22° C | 46% | 1019.6 hPa | 0 mm | - | 707 W/m² | - |
| 1777281192 | 17.22° C | 47% | 1019.6 hPa | 0 mm | - | 631 W/m² | - |
| 1777280592 | 16.67° C | 47% | 1019.6 hPa | 0 mm | - | 694 W/m² | - |
| 1777279992 | 16.67° C | 48% | 1019.7 hPa | 0 mm | - | 659 W/m² | - |
| 1777279392 | 16.11° C | 47% | 1019.7 hPa | 0 mm | - | 668 W/m² | - |
| 1777278792 | 16.11° C | 49% | 1019.8 hPa | 0 mm | - | 640 W/m² | - |
| 1777278192 | 15.56° C | 50% | 1019.8 hPa | 0 mm | - | 605 W/m² | - |
| 1777277592 | 15.56° C | 51% | 1019.8 hPa | 0 mm | - | 585 W/m² | - |
| 1777276992 | 15° C | 53% | 1019.8 hPa | 0 mm | - | 568 W/m² | - |
| 1777276392 | 14.44° C | 54% | 1019.8 hPa | 0 mm | - | 543 W/m² | - |
| 1777275792 | 13.89° C | 55% | 1019.8 hPa | 0 mm | - | 519 W/m² | - |
| 1777275192 | 13.33° C | 54% | 1019.9 hPa | 0 mm | - | 487 W/m² | - |
| 1777274592 | 12.78° C | 56% | 1019.9 hPa | 0 mm | - | 466 W/m² | - |
| 1777273992 | 12.78° C | 59% | 1020 hPa | 0 mm | - | 438 W/m² | - |
* Rain latest hour (hover to see other rain measurements)
** Current wind speed in m/s (hover to see current wind gust speed)